timestamp,wind_dir_avg,wind_spd_avg,wind_spd_max_dir,wind_spd_gust,battery_voltage,lat,long
2023-05-19 00:04:00+00:00,259.0,5.14,260.0,6.9,12.97,47.59359,-54.27349
2023-05-19 00:14:00+00:00,265.0,6.77,267.0,7.35,12.41,47.59359,-54.27349
2023-05-19 00:24:00+00:00,268.0,6.22,264.0,7.4,12.41,47.59359,-54.27349
2023-05-19 00:34:00+00:00,268.0,7.52,268.0,10.61,12.41,47.59359,-54.27349
2023-05-19 00:44:00+00:00,263.0,6.24,265.0,7.33,12.41,47.59359,-54.27349
2023-05-19 00:54:00+00:00,257.0,6.56,258.0,7.07,12.41,47.59359,-54.27349
2023-05-19 01:04:00+00:00,240.0,6.18,239.0,7.16,12.41,47.59359,-54.27349
2023-05-19 01:14:00+00:00,239.0,7.01,238.0,7.68,12.33,47.59359,-54.27349
2023-05-19 01:24:00+00:00,237.0,7.16,239.0,7.94,12.33,47.59359,-54.27349
2023-05-19 01:34:00+00:00,235.0,6.74,236.0,7.58,12.33,47.59359,-54.27349
2023-05-19 01:44:00+00:00,239.0,7.73,240.0,8.84,12.33,47.59359,-54.27349
2023-05-19 01:54:00+00:00,248.0,7.42,248.0,8.24,12.33,47.59359,-54.27349
2023-05-19 02:04:00+00:00,242.0,6.39,249.0,8.12,12.33,47.59359,-54.27349
2023-05-19 02:14:00+00:00,241.0,5.98,235.0,7.13,12.33,47.59359,-54.27349
2023-05-19 02:24:00+00:00,234.0,6.18,234.0,7.3,12.33,47.59359,-54.27349
2023-05-19 02:34:00+00:00,231.0,6.41,233.0,7.64,12.33,47.59359,-54.27349
2023-05-19 02:44:00+00:00,240.0,5.5,254.0,6.93,12.33,47.59359,-54.27349
2023-05-19 02:54:00+00:00,256.0,5.53,258.0,6.6,12.33,47.59359,-54.27349
2023-05-19 03:04:00+00:00,264.0,6.67,268.0,7.56,12.33,47.59359,-54.27349
2023-05-19 03:14:00+00:00,268.0,7.33,276.0,9.08,12.33,47.59359,-54.27349
2023-05-19 03:24:00+00:00,261.0,6.69,259.0,7.62,12.33,47.59359,-54.27349
2023-05-19 03:34:00+00:00,258.0,6.09,258.0,7.21,12.33,47.59359,-54.27349
2023-05-19 03:44:00+00:00,261.0,6.6,260.0,7.42,12.33,47.59359,-54.27349
2023-05-19 03:54:00+00:00,246.0,5.79,249.0,6.76,12.33,47.59359,-54.27349
2023-05-19 04:04:00+00:00,254.0,4.51,258.0,5.26,12.33,47.59359,-54.27349
2023-05-19 04:14:00+00:00,242.0,5.72,243.0,6.91,12.25,47.59359,-54.27349
2023-05-19 04:24:00+00:00,235.0,6.19,235.0,7.12,12.25,47.59359,-54.27349
2023-05-19 04:34:00+00:00,244.0,5.83,246.0,6.37,12.25,47.59359,-54.27349
2023-05-19 04:44:00+00:00,234.0,5.96,236.0,6.77,12.25,47.59359,-54.27349
2023-05-19 04:54:00+00:00,237.0,5.64,237.0,6.57,12.25,47.59359,-54.27349
2023-05-19 05:04:00+00:00,245.0,5.85,247.0,6.81,12.25,47.59359,-54.27349
2023-05-19 05:14:00+00:00,244.0,6.48,246.0,7.37,12.25,47.59359,-54.27349
2023-05-19 05:24:00+00:00,252.0,6.59,249.0,7.18,12.25,47.59359,-54.27349
2023-05-19 05:34:00+00:00,256.0,7.52,252.0,8.27,12.25,47.59359,-54.27349
2023-05-19 05:44:00+00:00,252.0,6.4,251.0,7.39,12.25,47.59359,-54.27349
2023-05-19 05:54:00+00:00,256.0,7.4,262.0,8.1,12.25,47.59359,-54.27349
2023-05-19 06:04:00+00:00,248.0,6.47,241.0,7.52,12.25,47.59359,-54.27349
2023-05-19 06:14:01+00:00,250.0,6.31,249.0,7.27,12.25,47.59359,-54.27349
2023-05-19 06:24:01+00:00,246.0,6.23,245.0,6.92,12.25,47.59359,-54.27349
2023-05-19 06:34:01+00:00,244.0,5.76,248.0,6.46,12.25,47.59359,-54.27349
2023-05-19 06:44:01+00:00,237.0,5.18,232.0,5.91,12.25,47.59359,-54.27349
2023-05-19 06:54:01+00:00,242.0,5.12,245.0,6.14,12.25,47.59359,-54.27349
2023-05-19 07:04:01+00:00,242.0,6.22,250.0,7.19,12.25,47.59359,-54.27349
2023-05-19 07:14:01+00:00,238.0,6.48,241.0,7.91,12.17,47.59359,-54.27349
2023-05-19 07:24:01+00:00,231.0,6.17,235.0,7.07,12.17,47.59359,-54.27349
2023-05-19 07:34:01+00:00,227.0,7.09,226.0,7.83,12.17,47.59359,-54.27349
2023-05-19 07:44:01+00:00,233.0,8.04,231.0,9.0,12.17,47.59359,-54.27349
2023-05-19 07:54:01+00:00,231.0,7.92,231.0,8.97,12.17,47.59359,-54.27349
2023-05-19 08:04:01+00:00,231.0,8.01,230.0,9.34,12.17,47.59359,-54.27349
2023-05-19 08:14:01+00:00,235.0,6.23,236.0,7.32,12.17,47.59359,-54.27349
2023-05-19 08:24:01+00:00,233.0,6.6,230.0,7.39,12.17,47.59359,-54.27349
2023-05-19 08:34:01+00:00,222.0,5.93,227.0,6.96,12.17,47.59359,-54.27349
2023-05-19 08:44:01+00:00,228.0,5.79,229.0,7.37,12.17,47.59359,-54.27349
2023-05-19 08:54:01+00:00,219.0,6.22,219.0,7.16,12.17,47.59359,-54.27349
2023-05-19 09:04:01+00:00,216.0,7.27,216.0,7.98,12.17,47.59359,-54.27349
2023-05-19 09:14:00+00:00,217.0,7.18,222.0,8.16,12.57,47.59359,-54.27349
2023-05-19 09:24:00+00:00,221.0,6.92,220.0,8.03,12.57,47.59359,-54.27349
2023-05-19 09:34:00+00:00,217.0,6.88,217.0,7.39,12.57,47.59359,-54.27349
2023-05-19 09:44:00+00:00,218.0,6.87,224.0,7.96,12.57,47.59359,-54.27349
2023-05-19 09:54:00+00:00,216.0,7.0,219.0,7.91,12.57,47.59359,-54.27349
2023-05-19 10:04:00+00:00,207.0,5.28,213.0,5.99,12.57,47.59359,-54.27349
2023-05-19 10:14:01+00:00,195.0,6.02,200.0,6.96,13.37,47.59359,-54.27349
2023-05-19 10:24:01+00:00,208.0,6.34,208.0,7.16,13.37,47.59359,-54.27349
2023-05-19 10:34:01+00:00,203.0,6.36,206.0,7.27,13.37,47.59359,-54.27349
2023-05-19 10:44:01+00:00,202.0,6.19,216.0,7.31,13.37,47.59359,-54.27349
2023-05-19 10:54:01+00:00,202.0,6.89,208.0,7.63,13.37,47.59359,-54.27349
2023-05-19 11:04:01+00:00,194.0,8.19,196.0,8.65,13.37,47.59359,-54.27349
2023-05-19 11:14:00+00:00,194.0,7.34,194.0,8.2,13.6,47.59359,-54.27349
2023-05-19 11:24:00+00:00,199.0,8.12,201.0,8.86,13.6,47.59359,-54.27349
2023-05-19 11:34:00+00:00,200.0,8.79,210.0,10.33,13.6,47.59359,-54.27349
2023-05-19 11:44:00+00:00,202.0,9.02,198.0,10.11,13.6,47.59359,-54.27349
2023-05-19 11:54:00+00:00,210.0,8.74,211.0,9.79,13.6,47.59359,-54.27349
2023-05-19 12:04:00+00:00,208.0,9.4,212.0,10.41,13.6,47.59359,-54.27349
2023-05-19 12:14:00+00:00,209.0,9.66,209.0,11.07,14.0,47.59359,-54.27349
2023-05-19 12:24:00+00:00,208.0,9.97,209.0,11.57,14.0,47.59359,-54.27349
2023-05-19 12:34:00+00:00,209.0,10.26,209.0,11.95,14.0,47.59359,-54.27349
2023-05-19 12:44:00+00:00,211.0,11.56,211.0,13.05,14.0,47.59359,-54.27349
2023-05-19 12:54:00+00:00,210.0,11.34,204.0,13.14,14.0,47.59359,-54.27349
2023-05-19 13:04:00+00:00,209.0,12.07,206.0,13.63,14.0,47.59359,-54.27349
2023-05-19 13:14:00+00:00,208.0,11.49,209.0,13.03,14.24,47.59359,-54.27349
2023-05-19 13:24:00+00:00,205.0,11.72,201.0,13.7,14.24,47.59359,-54.27349
2023-05-19 13:34:00+00:00,207.0,12.02,208.0,13.79,14.24,47.59359,-54.27349
2023-05-19 13:44:00+00:00,203.0,11.73,203.0,13.41,14.24,47.59359,-54.27349
2023-05-19 13:54:00+00:00,200.0,12.72,200.0,13.84,14.24,47.59359,-54.27349
2023-05-19 14:04:00+00:00,203.0,13.26,203.0,15.25,14.24,47.59359,-54.27349
2023-05-19 14:14:00+00:00,205.0,12.35,203.0,14.28,13.68,47.59359,-54.27349
2023-05-19 14:24:00+00:00,206.0,12.73,206.0,14.81,13.68,47.59359,-54.27349
2023-05-19 14:34:00+00:00,206.0,13.94,208.0,15.45,13.68,47.59359,-54.27349
2023-05-19 14:44:00+00:00,205.0,13.34,204.0,15.4,13.68,47.59359,-54.27349
2023-05-19 14:54:00+00:00,205.0,12.94,202.0,16.53,13.68,47.59359,-54.27349
2023-05-19 15:04:00+00:00,204.0,12.09,202.0,13.86,13.68,47.59359,-54.27349
2023-05-19 15:14:00+00:00,203.0,12.35,197.0,15.49,14.4,47.59359,-54.27349
2023-05-19 15:24:00+00:00,203.0,11.9,202.0,13.44,14.4,47.59359,-54.27349
2023-05-19 15:34:00+00:00,209.0,10.94,211.0,12.55,14.4,47.59359,-54.27349
2023-05-19 15:44:00+00:00,209.0,11.35,210.0,12.72,14.4,47.59359,-54.27349
2023-05-19 15:54:00+00:00,207.0,12.65,208.0,14.3,14.4,47.59359,-54.27349
2023-05-19 16:04:00+00:00,206.0,11.21,207.0,13.33,14.4,47.59359,-54.27349
2023-05-19 16:14:00+00:00,207.0,11.64,210.0,12.45,14.4,47.59359,-54.27349
2023-05-19 16:24:00+00:00,210.0,10.63,210.0,12.24,14.4,47.59359,-54.27349
2023-05-19 16:34:00+00:00,210.0,11.02,207.0,12.93,14.4,47.59359,-54.27349
2023-05-19 16:44:00+00:00,212.0,8.94,212.0,10.1,14.4,47.59359,-54.27349
2023-05-19 16:54:00+00:00,209.0,10.13,208.0,11.4,14.4,47.59359,-54.27349
2023-05-19 17:04:00+00:00,212.0,9.87,208.0,11.09,14.4,47.59359,-54.27349
2023-05-19 17:14:00+00:00,215.0,9.1,215.0,10.76,14.4,47.59359,-54.27349
2023-05-19 17:24:00+00:00,219.0,10.03,217.0,11.32,14.4,47.59359,-54.27349
2023-05-19 17:34:00+00:00,211.0,10.77,203.0,12.93,14.4,47.59359,-54.27349
2023-05-19 17:44:00+00:00,205.0,11.63,201.0,13.33,14.4,47.59359,-54.27349
2023-05-19 17:54:00+00:00,203.0,12.61,206.0,14.94,14.4,47.59359,-54.27349
2023-05-19 18:04:00+00:00,205.0,12.34,204.0,15.71,14.4,47.59359,-54.27349
2023-05-19 18:14:00+00:00,208.0,11.73,208.0,13.48,13.84,47.59359,-54.27349
2023-05-19 18:24:00+00:00,210.0,11.88,212.0,13.41,13.84,47.59359,-54.27349
2023-05-19 18:34:00+00:00,209.0,10.13,219.0,12.37,13.84,47.59359,-54.27349
2023-05-19 18:44:00+00:00,213.0,10.34,220.0,12.44,13.84,47.59359,-54.27349
2023-05-19 18:54:00+00:00,212.0,9.35,216.0,12.66,13.84,47.59359,-54.27349
2023-05-19 19:04:00+00:00,213.0,9.99,218.0,12.47,13.84,47.59359,-54.27349
2023-05-19 19:14:00+00:00,214.0,9.78,217.0,11.85,13.6,47.59359,-54.27349
2023-05-19 19:24:00+00:00,208.0,9.83,214.0,11.16,13.6,47.59359,-54.27349
2023-05-19 19:34:00+00:00,211.0,9.85,228.0,12.2,13.6,47.59359,-54.27349
2023-05-19 19:44:00+00:00,209.0,10.12,210.0,12.93,13.6,47.59359,-54.27349
2023-05-19 19:54:00+00:00,209.0,11.59,210.0,13.04,13.6,47.59359,-54.27349
2023-05-19 20:04:00+00:00,208.0,11.98,210.0,13.16,13.6,47.59359,-54.27349
2023-05-19 20:14:00+00:00,214.0,11.33,212.0,12.74,13.68,47.59359,-54.27349
2023-05-19 20:24:00+00:00,215.0,12.24,214.0,14.0,13.68,47.59359,-54.27349
2023-05-19 20:34:00+00:00,214.0,11.45,214.0,12.88,13.68,47.59359,-54.27349
2023-05-19 20:44:00+00:00,213.0,10.17,208.0,11.67,13.68,47.59359,-54.27349
2023-05-19 20:54:00+00:00,211.0,10.69,212.0,12.23,13.68,47.59359,-54.27349
2023-05-19 21:04:00+00:00,211.0,11.5,213.0,12.92,13.68,47.59359,-54.27349
2023-05-19 21:14:00+00:00,210.0,10.25,214.0,11.54,13.68,47.59359,-54.27349
2023-05-19 21:24:00+00:00,210.0,10.29,208.0,11.14,13.68,47.59359,-54.27349
2023-05-19 21:34:00+00:00,210.0,9.87,214.0,11.65,13.68,47.59359,-54.27349
2023-05-19 21:44:00+00:00,211.0,11.57,208.0,12.89,13.68,47.59359,-54.27349
2023-05-19 21:54:00+00:00,213.0,10.73,208.0,12.59,13.68,47.59359,-54.27349
2023-05-19 22:04:00+00:00,212.0,11.67,210.0,14.49,13.68,47.59359,-54.27349
2023-05-19 22:14:00+00:00,214.0,10.5,216.0,12.03,13.37,47.59359,-54.27349
2023-05-19 22:24:00+00:00,213.0,11.86,217.0,13.01,13.37,47.59359,-54.27349
2023-05-19 22:34:00+00:00,216.0,10.94,215.0,12.52,13.37,47.59359,-54.27349
2023-05-19 22:44:00+00:00,215.0,11.53,215.0,12.54,13.37,47.59359,-54.27349
2023-05-19 22:54:00+00:00,215.0,11.61,206.0,14.65,13.37,47.59359,-54.27349
2023-05-19 23:04:00+00:00,213.0,11.85,212.0,13.57,13.37,47.59359,-54.27349
2023-05-19 23:14:00+00:00,213.0,11.25,211.0,12.72,12.97,47.59359,-54.27349
2023-05-19 23:24:00+00:00,212.0,11.36,215.0,12.44,12.97,47.59359,-54.27349
2023-05-19 23:34:00+00:00,210.0,11.56,213.0,13.16,12.97,47.59359,-54.27349
2023-05-19 23:44:00+00:00,211.0,11.81,208.0,13.53,12.97,47.59359,-54.27349
2023-05-19 23:54:00+00:00,212.0,11.86,209.0,13.6,12.97,47.59359,-54.27349
